Location: ActonStarParty
(42.4766°N, 71.4538°W)
Time: 10:00:38
(UTC-05:00)

Amateur Radio Satellites - All Passes

Search period start: 23 November 2017 09:30
Search period end: 24 November 2017 09:30
Location: ActonStarParty, 42.4766°N, 71.4538°W

Satellite Date Start Highest point End Downlink Frequencies (MHz)
Time Altitude Azimuth
EO-79 23 Nov 09:35:29 09:37:21 13° 62° (ENE) 09:39:12 145.935-145.965
NANOSAT C BR1 23 Nov 09:37:31 09:39:01 12° 62° (ENE) 09:40:31 145.865
PCSat 23 Nov 09:43:56 09:48:24 27° 252° (WSW) 09:52:51 145.827
AIST 2D 23 Nov 09:44:10 09:47:21 35° 72° (ENE) 09:50:34 435.315
POLYITAN 1 23 Nov 09:50:18 09:53:11 18° 65° (ENE) 09:56:03 437.675
EO-88 23 Nov 09:53:29 09:57:10 89° 283° (WNW) 10:00:49 145.990 - 145.960
Max Valier Satellite 23 Nov 10:00:45 10:04:18 48° 286° (WNW) 10:07:51 145.860
FALCONSAT 3 23 Nov 10:02:10 10:05:18 26° 176° (S) 10:08:27 435.103
LO-87 23 Nov 10:11:19 10:13:37 16° 93° (E) 10:15:55 145.935 - 145.965
ESTCUBE 1 23 Nov 10:11:51 10:14:30 15° 91° (E) 10:17:08 437.505/2401.250
QB50P2 23 Nov 10:12:41 10:16:31 34° 70° (ENE) 10:20:20 145.880/145.840
UNISAT 6 23 Nov 10:18:12 10:19:19 11° 271° (W) 10:20:26 437.425
TIGRISAT 23 Nov 10:21:53 10:23:00 11° 271° (W) 10:24:06 435.000
BEESAT 2 23 Nov 10:30:07 10:33:33 26° 47° (NE) 10:36:55 435.950
PRISM 23 Nov 10:31:39 10:34:28 18° 267° (W) 10:37:19 437.425
BEESAT 3 23 Nov 10:50:08 10:54:02 62° 240° (WSW) 10:57:52 437.485
DUCHIFAT 1 23 Nov 10:57:57 11:02:09 75° 74° (ENE) 11:06:21 145.980
SPROUT 23 Nov 11:01:52 11:03:13 11° 90° (E) 11:04:35 437.525
AO-91 23 Nov 11:06:25 11:09:43 17° 62° (ENE) 11:13:01 145.960
AO-85 23 Nov 11:06:55 11:11:00 29° 47° (NE) 11:15:19 145.980
EO-79 23 Nov 11:08:21 11:12:34 64° 259° (W) 11:16:47 145.935-145.965
NANOSAT C BR1 23 Nov 11:09:56 11:14:09 70° 259° (WSW) 11:18:22 145.865
Gurwin Techsat 1B 23 Nov 11:11:27 11:14:11 14° 58° (ENE) 11:16:55 435.225
AIST 2D 23 Nov 11:19:02 11:20:40 13° 269° (W) 11:22:19 435.315
POLYITAN 1 23 Nov 11:24:37 11:28:38 42° 261° (W) 11:32:39 437.675
FALCONSAT 3 23 Nov 11:40:57 11:43:53 22° 191° (S) 11:46:49 435.103
BUGSAT 1 23 Nov 11:40:59 11:45:05 54° 73° (ENE) 11:49:08 437.445
LO-87 23 Nov 11:43:58 11:47:04 29° 289° (WNW) 11:50:10 145.935 - 145.965
ESTCUBE 1 23 Nov 11:47:11 11:51:37 54° 287° (WNW) 11:56:02 437.505/2401.250
O/OREOS (USA 219) 23 Nov 11:47:11 11:50:48 23° 102° (ESE) 11:54:26 437.305
QB50P2 23 Nov 11:49:06 11:52:21 21° 266° (W) 11:55:36 145.880/145.840
VELOX 1 23 Nov 11:57:06 12:01:02 30° 96° (E) 12:04:55 145.980
Oscar 19 23 Nov 12:03:31 12:08:29 54° 71° (ENE) 12:13:28 437.125/150
BEESAT 2 23 Nov 12:07:40 12:11:17 32° 245° (WSW) 12:14:51 435.950
SPROUT 23 Nov 12:35:18 12:39:31 63° 285° (WNW) 12:43:42 437.525
DX 1 23 Nov 12:35:30 12:38:26 17° 93° (E) 12:41:20 434.975-435.025
M-CUBED/EXP-1 PRIME 23 Nov 12:36:49 12:39:44 23° 61° (ENE) 12:42:50 437.505
AO-91 23 Nov 12:40:08 12:45:30 76° 257° (WSW) 12:50:54 145.960
AO-85 23 Nov 12:47:03 12:51:31 41° 243° (WSW) 12:56:15 145.980
Gurwin Techsat 1B 23 Nov 12:48:04 12:53:24 84° 256° (WSW) 12:58:45 435.225
50 SAT 23 Nov 12:48:25 12:50:59 21° 96° (E) 12:53:30 437.505
AO-7 23 Nov 13:06:54 13:14:17 38° 59° (ENE) 13:21:43 .
UKube-1 23 Nov 13:11:43 13:15:21 26° 96° (E) 13:18:58 .
BUGSAT 1 23 Nov 13:18:47 13:20:43 13° 269° (W) 13:22:39 437.445
O/OREOS (USA 219) 23 Nov 13:25:43 13:29:59 37° 299° (WNW) 13:34:16 437.305
VELOX 1 23 Nov 13:33:37 13:37:22 27° 293° (WNW) 13:41:04 145.980
Oscar 19 23 Nov 13:44:34 13:48:07 19° 268° (W) 13:51:41 437.125/150
ITAMSAT 1 23 Nov 14:01:30 14:06:23 42° 69° (ENE) 14:11:19 435.822/435.867
NO-84 23 Nov 14:02:13 14:05:47 68° 136° (SE) 14:09:41 435.350 FM
DX 1 23 Nov 14:10:38 14:14:49 44° 289° (WNW) 14:18:57 434.975-435.025
M-CUBED/EXP-1 PRIME 23 Nov 14:10:54 14:14:00 27° 260° (W) 14:17:19 437.505
50 SAT 23 Nov 14:20:38 14:22:55 18° 292° (WNW) 14:25:12 437.505
Gurwin Techsat 1B 23 Nov 14:33:43 14:34:06 10° 273° (W) 14:34:29 435.225
UKube-1 23 Nov 14:47:35 14:51:19 29° 292° (WNW) 14:55:03 .
YUBILEINY 23 Nov 14:52:50 15:00:26 31° 67° (ENE) 15:07:58 435.215
AO-7 23 Nov 14:58:46 15:06:47 53° 258° (WSW) 15:14:52 .
MOZHAYETS 4 23 Nov 15:03:52 15:08:27 80° 103° (ESE) 15:13:02
BEESAT 23 Nov 15:04:22 15:09:04 58° 101° (E) 15:13:44 436.000
DOVE 4 23 Nov 15:15:08 15:19:45 36° 69° (ENE) 15:24:32 437.250
ITUPSAT 1 23 Nov 15:15:48 15:20:34 74° 103° (ESE) 15:25:19 437.325
CUBESAT XI-V 23 Nov 15:22:32 15:26:39 29° 96° (E) 15:30:45 437.345
NO-84 23 Nov 15:40:18 15:43:28 24° 336° (NNW) 15:46:49 435.350 FM
ITAMSAT 1 23 Nov 15:41:44 15:45:59 25° 266° (W) 15:50:16 435.822/435.867
CUTE-I 23 Nov 15:53:39 15:57:16 19° 61° (ENE) 16:00:53 437.470
KAITUO 1B 23 Nov 16:03:09 16:04:31 12° 64° (ENE) 16:05:55 145.475/437.950
HO-68 23 Nov 16:11:00 16:15:42 19° 54° (NE) 16:20:24 435.675
XW-2D 23 Nov 16:22:53 16:26:07 28° 70° (ENE) 16:29:21 145.860 - 145.880
CUTE 1.7 + AOD 2 23 Nov 16:34:43 16:35:23 10° 61° (ENE) 16:36:03 437.475
KKS-1 23 Nov 16:36:53 16:41:03 37° 98° (E) 16:45:10 437.445
XW-2B 23 Nov 16:37:29 16:40:59 40° 72° (ENE) 16:44:31 145.730 - 145.750
NUDT-PHONESAT 23 Nov 16:40:59 16:44:11 30° 71° (ENE) 16:47:25 437.300
MOZHAYETS 4 23 Nov 16:43:18 16:44:56 12° 300° (WNW) 16:46:35
BEESAT 23 Nov 16:43:21 16:46:22 17° 298° (WNW) 16:49:22 436.000
RS-15 23 Nov 16:48:01 16:58:42 37° 105° (ESE) 17:09:20 29.354- 29.394
YUBILEINY 23 Nov 16:49:08 16:57:49 63° 268° (W) 17:06:27 435.215
DOVE 4 23 Nov 16:52:59 16:57:24 30° 266° (W) 17:02:00 437.250
STARS 23 Nov 16:53:56 16:57:25 23° 94° (E) 17:00:51 437.465
ITUPSAT 1 23 Nov 16:55:26 16:57:47 14° 300° (WNW) 17:00:07 437.325
SEEDS 23 Nov 16:59:00 17:00:31 12° 62° (ENE) 17:02:01 437.485
CUBESAT XI-V 23 Nov 16:59:53 17:03:57 30° 292° (WNW) 17:08:00 437.345
XW-2C 23 Nov 17:03:00 17:06:43 89° 78° (ENE) 17:10:30 145.795 - 145.815
LilacSat-2 23 Nov 17:08:23 17:12:08 72° 259° (WSW) 17:15:54 437.200
XW-2F 23 Nov 17:11:11 17:14:52 78° 258° (WSW) 17:18:37 145.980 - 146.000
NO-84 23 Nov 17:19:47 17:21:59 14° 358° (N) 17:24:16 435.350 FM
CUTE-I 23 Nov 17:31:27 17:36:46 65° 259° (WSW) 17:42:08 437.470
KAITUO 1B 23 Nov 17:34:29 17:38:03 50° 260° (W) 17:41:40 145.475/437.950
CUBEBUG 2 23 Nov 17:54:44 17:59:05 46° 72° (ENE) 18:03:19 437.445
HO-68 23 Nov 17:55:15 18:02:27 88° 71° (ENE) 18:09:43 435.675
XW-2D 23 Nov 17:57:34 18:00:17 19° 266° (W) 18:03:02 145.860 - 145.880
CUTE 1.7 + AOD 2 23 Nov 18:06:21 18:10:32 79° 256° (WSW) 18:14:47 437.475
XW-2B 23 Nov 18:13:26 18:15:21 14° 269° (W) 18:17:17 145.730 - 145.750
KKS-1 23 Nov 18:13:56 18:17:21 22° 295° (WNW) 18:20:46 437.445
NUDT-PHONESAT 23 Nov 18:15:38 18:18:05 17° 267° (W) 18:20:34 437.300
STARS 23 Nov 18:29:50 18:33:48 34° 291° (WNW) 18:37:43 437.465
AAUSAT CUBESAT 2 23 Nov 18:29:54 18:33:52 49° 73° (ENE) 18:37:53 437.432
ZACube-1 23 Nov 18:30:21 18:34:10 32° 71° (ENE) 18:37:57 437.345
SEEDS 23 Nov 18:31:28 18:35:37 67° 260° (W) 18:39:48 437.485
FO-29 23 Nov 18:38:55 18:42:31 14° 83° (E) 18:46:00 435.910
nSIGHT-1 23 Nov 18:42:55 18:45:21 20° 134° (SE) 18:47:47 .
UWE-3 23 Nov 18:45:40 18:50:06 88° 259° (WSW) 18:54:26 435.000/436.395/437.385
YUBILEINY 23 Nov 18:50:51 18:52:38 11° 289° (WNW) 18:54:26 435.215
XW-2A 23 Nov 18:53:25 18:56:42 68° 258° (WSW) 19:00:01 145.665 - 145.685
NO-84 23 Nov 18:57:30 19:00:38 20° 19° (NNE) 19:03:49 435.350 FM
RS-15 23 Nov 18:58:04 19:10:23 71° 308° (NW) 19:22:38 29.354- 29.394
STRAND 1 23 Nov 18:59:48 19:04:47 50° 100° (E) 19:09:43 437.568
AO-73 23 Nov 19:19:05 19:23:23 82° 257° (WSW) 19:27:36 145.935
Oscar 11 23 Nov 19:32:15 19:36:32 88° 251° (WSW) 19:40:52 .
CUBEBUG 2 23 Nov 19:32:53 19:35:52 17° 268° (W) 19:38:51 437.445
ISS 23 Nov 19:35:05 19:38:16 52° 141° (SE) 19:41:29 437.550
HO-68 23 Nov 19:46:39 19:51:02 17° 271° (W) 19:55:27 435.675
SO-50 23 Nov 20:06:03 20:09:50 28° 114° (ESE) 20:13:39 436.795
ZACube-1 23 Nov 20:07:08 20:10:29 22° 266° (W) 20:13:49 437.345
AAUSAT CUBESAT 2 23 Nov 20:07:24 20:09:35 14° 269° (W) 20:11:48 437.432
DELFI C3 23 Nov 20:09:18 20:13:06 47° 73° (ENE) 20:16:57 145.870
nSIGHT-1 23 Nov 20:18:12 20:21:21 51° 331° (NNW) 20:24:30 .
FO-29 23 Nov 20:20:58 20:28:51 74° 102° (ESE) 20:36:08 435.910
UNISAT 6 23 Nov 20:30:09 20:32:20 14° 91° (E) 20:34:29 437.425
EO-88 23 Nov 20:31:20 20:34:42 39° 72° (ENE) 20:38:06 145.990 - 145.960
TIGRISAT 23 Nov 20:33:44 20:35:52 13° 91° (E) 20:37:59 435.000
NO-84 23 Nov 20:34:24 20:38:37 67° 37° (NE) 20:42:52 435.350 FM
Max Valier Satellite 23 Nov 20:39:26 20:43:04 75° 76° (ENE) 20:46:43 145.860
STRAND 1 23 Nov 20:39:48 20:43:35 21° 297° (WNW) 20:47:20 437.568
ISS 23 Nov 21:12:01 21:14:54 28° 339° (NNW) 21:17:47 437.550
ESTCUBE 1 23 Nov 21:12:15 21:14:57 16° 63° (ENE) 21:17:39 437.505/2401.250
RS-15 23 Nov 21:15:06 21:25:32 30° 337° (NNW) 21:35:48 29.354- 29.394
SO-50 23 Nov 21:46:03 21:50:09 35° 312° (NW) 21:54:19 436.795
DELFI C3 23 Nov 21:46:05 21:48:06 13° 269° (W) 21:50:06 145.870
O/OREOS (USA 219) 23 Nov 21:55:33 21:59:59 49° 63° (ENE) 22:04:21 437.305
nSIGHT-1 23 Nov 21:55:50 21:58:07 18° 350° (N) 22:00:25 .
SPROUT 23 Nov 21:56:37 21:57:33 11° 61° (ENE) 21:58:29 437.525
UNISAT 6 23 Nov 22:05:12 22:09:22 52° 287° (WNW) 22:13:29 437.425
EO-88 23 Nov 22:06:45 22:08:31 13° 268° (W) 22:10:18 145.990 - 145.960
FO-29 23 Nov 22:06:54 22:13:03 26° 302° (WNW) 22:18:57 435.910
TIGRISAT 23 Nov 22:08:44 22:12:53 52° 287° (WNW) 22:17:00 435.000
PRISM 23 Nov 22:10:28 22:14:36 58° 101° (ESE) 22:18:39 437.425
NO-84 23 Nov 22:12:33 22:15:37 19° 235° (SW) 22:18:40 435.350 FM
LO-87 23 Nov 22:19:25 22:23:01 72° 258° (WSW) 22:26:38 145.935 - 145.965
AIST 2D 23 Nov 22:40:56 22:44:18 40° 99° (E) 22:47:38 435.315
PCSat 23 Nov 22:42:29 22:47:22 36° 111° (ESE) 22:52:17 145.827
DUCHIFAT 1 23 Nov 22:43:40 22:44:39 11° 89° (E) 22:45:40 145.980
ESTCUBE 1 23 Nov 22:46:54 22:51:17 55° 260° (W) 22:55:43 437.505/2401.250
ISS 23 Nov 22:49:59 22:52:09 16° 359° (N) 22:54:19 437.550
EO-79 23 Nov 22:53:01 22:56:00 19° 93° (E) 22:58:59 145.935-145.965
NANOSAT C BR1 23 Nov 22:54:23 22:57:11 17° 93° (E) 22:59:57 145.865
VELOX 1 23 Nov 22:54:45 22:58:34 29° 68° (ENE) 23:02:25 145.980
POLYITAN 1 23 Nov 23:08:41 23:12:18 28° 96° (E) 23:15:54 437.675
SPROUT 23 Nov 23:28:30 23:32:47 80° 257° (WSW) 23:37:05 437.525
DX 1 23 Nov 23:31:47 23:34:41 18° 64° (ENE) 23:37:35 434.975-435.025
QB50P2 23 Nov 23:31:53 23:36:02 57° 101° (E) 23:40:10 145.880/145.840
nSIGHT-1 23 Nov 23:32:55 23:35:13 18° 10° (N) 23:37:32 .
RS-15 23 Nov 23:33:40 23:43:19 26° 12° (NNE) 23:52:37 29.354- 29.394
O/OREOS (USA 219) 23 Nov 23:36:06 23:38:57 17° 260° (W) 23:41:47 437.305
PRISM 23 Nov 23:47:19 23:49:21 13° 298° (WNW) 23:51:24 437.425
UKube-1 24 Nov 00:06:42 00:10:12 25° 67° (ENE) 00:13:44 .
Oscar 19 24 Nov 00:15:21 00:18:48 18° 92° (E) 00:22:13 437.125/150
AIST 2D 24 Nov 00:15:25 00:17:05 13° 294° (WNW) 00:18:45 435.315
DUCHIFAT 1 24 Nov 00:16:36 00:20:44 64° 286° (WNW) 00:24:50 145.980
PCSat 24 Nov 00:25:46 00:30:44 36° 309° (NW) 00:35:44 145.827
ISS 24 Nov 00:26:38 00:29:26 26° 20° (NNE) 00:32:14 437.550
EO-79 24 Nov 00:28:01 00:31:53 37° 289° (WNW) 00:35:43 145.935-145.965
NANOSAT C BR1 24 Nov 00:29:07 00:33:03 40° 289° (WNW) 00:36:57 145.865
VELOX 1 24 Nov 00:31:11 00:34:58 27° 265° (W) 00:38:46 145.980
AO-91 24 Nov 00:31:24 00:34:43 20° 91° (E) 00:37:47 145.960
BEESAT 3 24 Nov 00:40:51 00:43:30 17° 111° (ESE) 00:46:10 437.485
POLYITAN 1 24 Nov 00:44:32 00:47:59 25° 292° (WNW) 00:51:25 437.675
50 SAT 24 Nov 00:46:49 00:50:00 56° 259° (W) 00:53:12 437.505
ITUPSAT 1 24 Nov 00:48:57 00:50:33 12° 58° (ENE) 00:52:08 437.325
BUGSAT 1 24 Nov 00:57:03 01:01:06 86° 105° (ESE) 01:05:05 437.445
Gurwin Techsat 1B 24 Nov 01:03:51 01:08:46 36° 97° (E) 01:13:37 435.225
DX 1 24 Nov 01:06:17 01:10:30 47° 261° (W) 01:14:44 434.975-435.025
nSIGHT-1 24 Nov 01:08:50 01:11:59 53° 29° (NNE) 01:15:07 .
QB50P2 24 Nov 01:09:14 01:11:20 14° 297° (WNW) 01:13:26 145.880/145.840
UKube-1 24 Nov 01:42:15 01:46:04 31° 263° (W) 01:49:56 .
RS-15 24 Nov 01:47:50 01:59:29 53° 44° (NE) 02:10:29 29.354- 29.394
M-CUBED/EXP-1 PRIME 24 Nov 01:47:52 01:51:07 19° 98° (E) 01:54:22 437.505
Oscar 19 24 Nov 01:53:23 01:58:28 58° 288° (WNW) 02:03:31 437.125/150
BEESAT 2 24 Nov 01:58:38 02:02:15 33° 115° (ESE) 02:05:54 435.950
ISS 24 Nov 02:02:53 02:06:07 61° 217° (SW) 02:09:19 437.550
MOZHAYETS 4 24 Nov 02:05:57 02:10:30 81° 76° (ENE) 02:15:05
AO-91 24 Nov 02:07:15 02:11:20 34° 291° (WNW) 02:15:01 145.960
BEESAT 24 Nov 02:11:02 02:15:46 72° 74° (ENE) 02:20:33 436.000
ITAMSAT 1 24 Nov 02:15:20 02:17:49 13° 90° (E) 02:20:16 435.822/435.867
BEESAT 3 24 Nov 02:16:51 02:20:41 44° 308° (NW) 02:24:33 437.485
ITUPSAT 1 24 Nov 02:22:50 02:27:38 89° 245° (WSW) 02:32:26 437.325
CUBESAT XI-V 24 Nov 02:26:21 02:30:22 31° 68° (ENE) 02:34:26 437.345
Gurwin Techsat 1B 24 Nov 02:43:59 02:48:35 30° 294° (WNW) 02:53:09 435.225
nSIGHT-1 24 Nov 02:45:38 02:47:57 19° 227° (SW) 02:50:16 .
AO-7 24 Nov 02:59:11 03:07:18 52° 102° (ESE) 03:15:23 .
AO-85 24 Nov 03:02:09 03:05:56 55° 119° (ESE) 03:09:55 145.980
M-CUBED/EXP-1 PRIME 24 Nov 03:21:14 03:25:39 50° 293° (WNW) 03:30:09 437.505
KKS-1 24 Nov 03:35:14 03:39:22 38° 70° (ENE) 03:43:31 437.445
BEESAT 2 24 Nov 03:36:36 03:40:00 26° 314° (NW) 03:43:26 435.950
STARS 24 Nov 03:51:02 03:54:31 23° 66° (ENE) 03:58:01 437.465
BEESAT 24 Nov 03:52:06 03:54:02 12° 270° (W) 03:55:58 436.000
ITAMSAT 1 24 Nov 03:52:37 03:57:50 76° 286° (WNW) 04:03:00 435.822/435.867
YUBILEINY 24 Nov 03:55:07 04:02:36 33° 84° (E) 04:10:08 435.215
RS-15 24 Nov 04:00:47 04:11:59 53° 249° (WSW) 04:22:36 29.354- 29.394
CUBESAT XI-V 24 Nov 04:03:49 04:07:43 27° 265° (W) 04:11:39 437.345
SO-50 24 Nov 04:35:51 04:40:05 33° 48° (NE) 04:44:20 436.795
STRAND 1 24 Nov 04:41:43 04:42:55 11° 57° (ENE) 04:44:07 437.568
LilacSat-2 24 Nov 04:42:44 04:44:03 11° 90° (E) 04:45:23 437.200
AO-85 24 Nov 04:44:00 04:46:43 17° 320° (NW) 04:49:30 145.980
XW-2F 24 Nov 04:45:25 04:45:32 10° 90° (E) 04:45:40 145.980 - 146.000
DOVE 4 24 Nov 04:50:32 04:55:43 81° 102° (ESE) 05:00:35 437.250
AO-7 24 Nov 04:52:19 04:59:49 39° 301° (WNW) 05:07:20 .
KAITUO 1B 24 Nov 05:05:45 05:07:51 14° 92° (E) 05:09:57 145.475/437.950
KKS-1 24 Nov 05:12:37 05:16:01 21° 266° (W) 05:19:27 437.445
HO-68 24 Nov 05:24:22 05:28:23 16° 88° (E) 05:32:24 435.675
STARS 24 Nov 05:26:36 05:30:39 35° 262° (W) 05:34:44 437.465
XW-2D 24 Nov 05:28:00 05:31:35 38° 98° (E) 05:35:10 145.860 - 145.880
ITAMSAT 1 24 Nov 05:35:10 05:36:23 11° 304° (NW) 05:37:36 435.822/435.867
XW-2B 24 Nov 05:42:49 05:46:35 56° 100° (E) 05:50:21 145.730 - 145.750
NUDT-PHONESAT 24 Nov 05:43:26 05:46:56 38° 98° (E) 05:50:25 437.300
CUTE-I 24 Nov 05:47:49 05:53:01 48° 100° (E) 05:58:10 437.470
YUBILEINY 24 Nov 05:50:24 05:58:57 56° 284° (WNW) 06:07:36 435.215
CUTE 1.7 + AOD 2 24 Nov 05:51:22 05:54:14 17° 92° (E) 05:57:05 437.475
XW-2C 24 Nov 06:08:38 06:12:26 67° 284° (WNW) 06:16:13 145.795 - 145.815
LilacSat-2 24 Nov 06:14:52 06:18:37 51° 286° (WNW) 06:22:21 437.200
SEEDS 24 Nov 06:15:10 06:18:13 19° 93° (E) 06:21:17 437.485
STRAND 1 24 Nov 06:16:04 06:21:12 77° 74° (ENE) 06:26:23 437.568
XW-2F 24 Nov 06:16:14 06:19:58 57° 285° (WNW) 06:23:43 145.980 - 146.000
SO-50 24 Nov 06:16:21 06:20:30 32° 245° (WSW) 06:24:41 436.795
DOVE 4 24 Nov 06:30:03 06:32:36 14° 301° (WNW) 06:35:06 437.250
FO-29 24 Nov 06:33:06 06:39:18 37° 63° (ENE) 06:46:04 435.910
UWE-3 24 Nov 06:35:33 06:38:11 16° 92° (E) 06:40:49 435.000/436.395/437.385
KAITUO 1B 24 Nov 06:38:27 06:42:00 39° 288° (WNW) 06:45:32 145.475/437.950
XW-2D 24 Nov 07:03:04 07:05:27 16° 294° (WNW) 07:07:49 145.860 - 145.880
AO-73 24 Nov 07:07:07 07:09:51 17° 92° (E) 07:12:35 145.935
HO-68 24 Nov 07:09:48 07:17:03 88° 107° (ESE) 07:24:14 435.675
NUDT-PHONESAT 24 Nov 07:18:15 07:20:27 15° 294° (WNW) 07:22:40 437.300
XW-2B 24 Nov 07:18:55 07:20:17 12° 296° (WNW) 07:21:37 145.730 - 145.750
Oscar 11 24 Nov 07:19:48 07:22:33 16° 92° (E) 07:25:17 .
CUBEBUG 2 24 Nov 07:21:03 07:25:13 84° 284° (WNW) 07:29:21 437.445
CUTE 1.7 + AOD 2 24 Nov 07:26:12 07:30:14 42° 288° (WNW) 07:34:16 437.475
CUTE-I 24 Nov 07:28:32 07:32:44 24° 297° (WNW) 07:36:55 437.470
PCSat 24 Nov 07:29:17 07:34:16 35° 51° (NE) 07:39:11 145.827
UNISAT 6 24 Nov 07:29:36 07:32:11 15° 63° (ENE) 07:34:43 437.425
TIGRISAT 24 Nov 07:33:02 07:35:34 15° 63° (ENE) 07:38:05 435.000
AAUSAT CUBESAT 2 24 Nov 07:46:11 07:50:24 86° 102° (ESE) 07:54:35 437.432
XW-2A 24 Nov 07:46:31 07:49:53 72° 285° (WNW) 07:53:14 145.665 - 145.685
SEEDS 24 Nov 07:50:05 07:54:02 37° 289° (WNW) 07:57:57 437.485
FALCONSAT 3 24 Nov 07:50:42 07:52:50 15° 160° (SSE) 07:54:59 435.103
ZACube-1 24 Nov 07:53:15 07:57:23 64° 101° (ESE) 08:01:33 437.345
YUBILEINY 24 Nov 07:55:58 07:58:08 11° 308° (NW) 08:00:18 435.215
STRAND 1 24 Nov 07:58:39 08:00:57 13° 271° (W) 08:03:16 437.568
UWE-3 24 Nov 08:10:56 08:14:50 41° 288° (WNW) 08:18:44 435.000/436.395/437.385
FO-29 24 Nov 08:17:37 08:24:05 47° 264° (W) 08:31:18 435.910
AO-73 24 Nov 08:42:21 08:46:15 40° 288° (WNW) 08:50:10 145.935
Oscar 11 24 Nov 08:54:46 08:58:54 45° 288° (WNW) 09:03:02 .
BEESAT 3 24 Nov 08:56:09 08:58:37 16° 41° (NE) 09:01:03 437.485
HO-68 24 Nov 08:58:59 09:03:52 20° 306° (NW) 09:08:45 435.675
PRISM 24 Nov 08:59:52 09:03:46 43° 71° (ENE) 09:07:43 437.425
UNISAT 6 24 Nov 09:03:57 09:08:26 58° 259° (W) 09:12:50 437.425
TIGRISAT 24 Nov 09:07:20 09:11:48 59° 259° (W) 09:16:12 435.000
PCSat 24 Nov 09:12:42 09:17:39 37° 249° (WSW) 09:22:33 145.827
AIST 2D 24 Nov 09:16:24 09:18:38 16° 68° (ENE) 09:20:54 435.315
DELFI C3 24 Nov 09:19:40 09:23:41 72° 102° (ESE) 09:27:38 145.870
